Home   Weather   Weiz   Past weeks

Flag for Austria Past Weather in Weiz, Styria, Austria — Yesterday and Last 2 Weeks

Now
57 °F

Overcast.


Feels Like: 57 °F
Forecast: 44 / 51 °F
Wind: 5 mph from South

Location: Graz-Thalerhof-Flughafen

Current Time: Apr 26, 2017 at 9:35:56 pm

Latest Report: Apr 26, 2017 at 9:00 pm


Visibility: 28 mi

Pressure: 29.78 "Hg

Humidity: 62%

Dew Point: 44 °F

Location of WeizLocation

Past Weather in Weiz — Graph

°F

Weiz Temperature Yesterday

Maximum temperature yesterday: 68 °F (at 1:00 pm)
Minimum temperature yesterday: 35 °F (at 4:00 am)
Average temperature yesterday: 54 °F

High & Low Weather Summary for the Past Weeks

 TemperatureHumidityPressure
High68 °F (Apr 25, 1:00 pm)98% (Apr 16, 6:00 am)30.49 "Hg (Apr 16, 6:00 am)
Low25 °F (Apr 21, 7:00 am)24% (Apr 21, 3:00 pm)29.69 "Hg (Apr 26, 5:00 am)
Average48 °F60%30.04 "Hg
* Reported Apr 11 8:00 pm — Apr 26 8:00 pm, Weiz, Weather by CustomWeather, © 2017

Note: Actual official high and low records may vary slightly from our data, if they occured in-between our weather recording intervals... More about our weather records

Advertising

Weiz Weather History for the Previous 24 Hours

Scroll right to see more
 ConditionsComfort  
Time TempWeatherWind HumidityBarometerVisibility
8:00 pm
Wed, Apr 26
58 °FOvercast.6 mph58%29.77 "Hg31 mi
7:00 pm59 °FOvercast.5 mph56%29.77 "Hg25 mi
6:00 pm60 °FOvercast.7 mph55%29.76 "Hg28 mi
5:00 pm60 °FOvercast.7 mph55%29.75 "Hg19 mi
4:00 pm60 °FOvercast.6 mph56%29.76 "Hg25 mi
3:00 pm60 °FRain showers. Overcast.7 mph57%29.75 "Hg16 mi
2:00 pm60 °FOvercast.7 mph56%29.75 "Hg18 mi
1:00 pm61 °FOvercast.8 mph53%29.72 "Hg28 mi
12:00 pm64 °FPartly sunny.8 mph46%29.72 "Hg12 mi
11:00 am65 °FPartly sunny.8 mph42%29.71 "Hg16 mi
10:00 am61 °FOvercast.9 mph50%29.72 "Hg14 mi
9:00 am60 °FOvercast.9 mph53%29.72 "Hg22 mi
8:00 am58 °FOvercast.9 mph53%29.72 "Hg25 mi
7:00 am58 °FOvercast.8 mph58%29.71 "Hg28 mi
6:00 am58 °FOvercast.7 mph59%29.70 "Hg28 mi
5:00 am58 °FOvercast.8 mph57%29.69 "Hg28 mi
4:00 am58 °FOvercast.7 mph59%29.70 "Hg25 mi
3:00 am59 °FOvercast.6 mph57%29.70 "Hg25 mi
2:00 am58 °FOvercast.6 mph57%29.72 "Hg28 mi
1:00 am56 °FOvercast.N/A62%29.74 "Hg28 mi
12:00 am56 °FOvercast.N/A62%29.75 "Hg31 mi
11:00 pm
Tue, Apr 25
57 °FOvercast.N/A58%29.77 "Hg28 mi
10:00 pm58 °FOvercast.5 mph55%29.75 "Hg28 mi
9:00 pm59 °FPassing clouds.7 mph52%29.75 "Hg28 mi
Weather by CustomWeather, © 2017

See weather overviewHow to use our weather pages